This is the latest recevied weather packets stored in our database for station/object IW8XOI-10. If no packets are shown the sender has not sent any weather packets the latest 10 day(s).
| Time | Temp. | Humidity | Pressure | Rain* | Wind** | Luminosity | Snow |
|---|---|---|---|---|---|---|---|
| 1777172181 | 21.67° C | 49% | 1026.1 hPa | - | - | - | - |
| 1777168581 | 22.22° C | 48% | 1026.1 hPa | - | - | - | - |
| 1777164981 | 22.78° C | 47% | 1026.3 hPa | - | - | - | - |
| 1777161381 | 23.89° C | 46% | 1026.2 hPa | - | - | - | - |
| 1777157781 | 25° C | 46% | 1026.1 hPa | - | - | - | - |
| 1777154181 | 26.11° C | 46% | 1026.2 hPa | - | - | - | - |
| 1777150581 | 27.22° C | 45% | 1026.2 hPa | - | - | - | - |
| 1777146981 | 29.44° C | 44% | 1026.2 hPa | - | - | - | - |
| 1777143381 | 30.56° C | 44% | 1026 hPa | - | - | - | - |
| 1777139782 | 31.67° C | 44% | 1025.5 hPa | - | - | - | - |
| 1777136182 | 31.67° C | 44% | 1025.3 hPa | - | - | - | - |
| 1777132582 | 31.67° C | 44% | 1025.3 hPa | - | - | - | - |
| 1777128982 | 31.11° C | 44% | 1025.3 hPa | - | - | - | - |
| 1777125382 | 30.56° C | 45% | 1025.8 hPa | - | - | - | - |
| 1777121782 | 29.44° C | 46% | 1026.1 hPa | - | - | - | - |
| 1777118182 | 28.33° C | 48% | 1026.3 hPa | - | - | - | - |
| 1777114584 | 25.56° C | 49% | 1026.7 hPa | - | - | - | - |
| 1777110982 | 23.89° C | 50% | 1027.2 hPa | - | - | - | - |
| 1777107382 | 21.11° C | 50% | 1027.4 hPa | - | - | - | - |
| 1777103782 | 19.44° C | 50% | 1027.3 hPa | - | - | - | - |
| 1777100182 | 18.33° C | 50% | 1027 hPa | - | - | - | - |
| 1777096582 | 18.33° C | 50% | 1026.7 hPa | - | - | - | - |
| 1777092983 | 17.78° C | 51% | 1026.5 hPa | - | - | - | - |
| 1777089383 | 17.78° C | 51% | 1026 hPa | - | - | - | - |
* Rain since midnight (hover to see other rain measurements)
** Current wind speed in m/s (hover to see current wind gust speed)